Location: Alafon
(8.4500°N, 4.2333°E)
Time: 01:19:53
(UTC+00:00)

Spelda 30 - Pass Details

Date: 05 July 2020
Orbit: 355 x 28294 km, 3.9° (Epoch: 06 August)

Event Time Altitude Azimuth Distance (km) Brightness Sun altitude
Rises 19:41:53 0° 256° (WSW) 2,296 6.7 -22.3°
Reaches altitude 10° 19:43:17 10° 248° (WSW) 1,652 5.7 -22.6°
Maximum altitude 19:46:19 44° 172° (S) 1,076 3.9 -23.2°
Enters shadow 19:46:29 44° 166° (SSE) 1,105 4.0 -23.3°
